HULIANWANG DIGUI-124

Last updated on Fri Dec 19 2025 00:02:10 GMT+0000 (Coordinated Universal Time)

1 67064U 25295F 25352.02899511 -.00000676 00000+0 -21482-3 0 9998 2 67064 50.0037 349.8867 0012069 265.6344 94.3191 14.25947801 876
UTC large
Height (km)
Speed (km/s)
/
Latitude / Longitude
Inclination (degrees)
Orbital Period (minutes)
Azimuth
Elevation
Range (km)
Doppler Factor

Next 0 passes for location: London (51.5072 / 0.1276)

Sorry there are no passes over London.